Regional Weather Roundup
Issued by NWS

Home | Current Version | Previous Version | Text Only | Print | Product List | Glossary On
Versions: 1 2 3 4 5 6 7 8 9 10 11 12 13 14 15 16 17 18 19 20 21 22 23 24 25 26 27 28 29 30 31 32 33 34 35 36 37 38 39 40 41 42 43 44 45 46 47
000
ASPQ40 PGUM 222212
RWRPQ
WEATHER ROUNDUP FOR THE MARIANAS AND MICRONESIA
NATIONAL WEATHER SERVICE TIYAN GU
800 AM CHST WED JUL 23 2014

GUZ001>004-222300-
MARIANA ISLANDS-

CITY           SKY/WX    TMP DP  RH WIND       PRES   REMARKS
GUAM AIRPORT   MOSUNNY   82  79  89 E6        29.82F HX  93
ANDERSEN AFB   MOSUNNY   82  77  83 E8        29.83R HX  91
ROTA AIRPORT   MOSUNNY   81  79  94 E9        29.84R
TINIAN AP      MOSUNNY   82  77  83 E9        29.80R HX  91
SAIPAN AP      MOSUNNY   84  77  79 E9        29.82R HX  94

$$

PMZ161-222300-
REPUBLIC OF PALAU-

CITY           SKY/WX    TMP DP  RH WIND       PRES   REMARKS
KOROR AP       PTSUNNY   84  81  89 W7        29.83R HX  98
KOROR WSO      CLOUDY    82  77  83 NW8       29.83R HX  91

$$

PMZ171>174-222300-
FEDERATED STATES OF MICRONESIA-

CITY           SKY/WX    TMP DP  RH WIND       PRES   REMARKS
YAP AIRPORT    CLOUDY    82  75  78 NW8       29.82R
CHUUK AP       CLOUDY    81  79  94 NE7       29.77R
POHNPEI AP     NOT AVBL
POHNPEI WSO    CLOUDY    82  79  89 E3        29.81R HX  93
KOSRAE AP      CLOUDY    82  77  83 SW6       29.80  HX  91

$$

PMZ181-222300-
REPUBLIC OF THE MARSHALL ISLANDS-

CITY           SKY/WX    TMP DP  RH WIND       PRES   REMARKS
KWAJALEIN AP   MOSUNNY   84  75  74 NE5       29.81R HX  92
MAJURO AP      PTSUNNY   86  77  74 SE8       29.81R HX  97
MAJURO WSO     PTSUNNY   84  75  74 CALM      29.82R HX  92

$$



USA.gov is the U.S. government's official web portal to all federal, state and local government web resources and services.